VSV765 LLBG-OMDB

Flight info

Callsign VSV765
Flight time 3h 12m
Altitude 37000
Route SALAM N134 OSAMA DCT EGLOT R652 KULDI N318 NEVOL Q255 LUDEP P559 VUTEB
Aircraft B733/M-SDE2E3FHIRW/S

Departure

Time 2026-04-22 11:30
Airport Ben Gurion International Airport (LLBG)

Arrival

Time 2026-04-22 14:42
Airport Dubai International Airport (OMDB)
Time Latitude Longitude Altitude Speed Heading
2026-04-22 11:02 32.00361 34.87952 125 ft 0 kts 121°
2026-04-22 11:17 32.00362 34.87949 125 ft 2 kts 121°
2026-04-22 11:18 32.00370 34.87934 124 ft 2 kts 121°
2026-04-22 11:18 32.00375 34.87918 124 ft 2 kts 97°
2026-04-22 11:18 32.00375 34.87900 124 ft 2 kts 78°
2026-04-22 11:18 32.00370 34.87883 124 ft 2 kts 57°
2026-04-22 11:19 32.00360 34.87870 125 ft 2 kts 37°
2026-04-22 11:19 32.00347 34.87861 125 ft 2 kts 29°
2026-04-22 11:19 32.00334 34.87852 125 ft 2 kts 31°
2026-04-22 11:19 32.00329 34.87849 125 ft 0 kts 31°
2026-04-22 11:21 32.00331 34.87850 125 ft 1 kts 31°
2026-04-22 11:22 32.00345 34.87860 125 ft 3 kts 31°
2026-04-22 11:22 32.00378 34.87882 124 ft 6 kts 30°
2026-04-22 11:22 32.00429 34.87915 123 ft 9 kts 27°
2026-04-22 11:22 32.00490 34.87954 124 ft 10 kts 26°
2026-04-22 11:23 32.00561 34.87930 124 ft 10 kts 333°
2026-04-22 11:23 32.00625 34.87951 123 ft 0 kts 30°
2026-04-22 11:24 32.00629 34.87954 123 ft 2 kts 30°
2026-04-22 11:24 32.00642 34.87962 122 ft 4 kts 32°
2026-04-22 11:24 32.00691 34.87998 122 ft 7 kts 32°
2026-04-22 11:25 32.00737 34.88032 122 ft 8 kts 31°
2026-04-22 11:25 32.00772 34.88056 123 ft 8 kts 31°
2026-04-22 11:25 32.00857 34.88118 122 ft 12 kts 30°
2026-04-22 11:25 32.00936 34.88172 122 ft 13 kts 30°
2026-04-22 11:26 32.01020 34.88233 122 ft 15 kts 31°
2026-04-22 11:26 32.01114 34.88300 122 ft 16 kts 31°
2026-04-22 11:26 32.01216 34.88373 123 ft 17 kts 32°
2026-04-22 11:26 32.01313 34.88463 122 ft 18 kts 45°
2026-04-22 11:27 32.01402 34.88586 123 ft 19 kts 56°
2026-04-22 11:27 32.01465 34.88731 125 ft 20 kts 68°
2026-04-22 11:27 32.01498 34.88871 126 ft 13 kts 80°
2026-04-22 11:27 32.01514 34.88981 128 ft 13 kts 79°
2026-04-22 11:28 32.01532 34.89089 130 ft 13 kts 77°
2026-04-22 11:28 32.01558 34.89153 131 ft 13 kts 44°
2026-04-22 11:28 32.01635 34.89156 129 ft 2 kts 349°
2026-04-22 11:28 32.01662 34.89150 128 ft 5 kts 348°
2026-04-22 11:29 32.01706 34.89138 128 ft 7 kts 345°
2026-04-22 11:29 32.01741 34.89090 128 ft 0 kts 265°
2026-04-22 11:29 32.01740 34.89084 128 ft 3 kts 263°
2026-04-22 11:29 32.01682 34.88688 122 ft 82 kts 259°
2026-04-22 11:30 32.01537 34.87752 119 ft 142 kts 259°
2026-04-22 11:30 32.01345 34.86527 427 ft 158 kts 262°
2026-04-22 11:30 32.01147 34.85223 937 ft 164 kts 262°
2026-04-22 11:30 32.00996 34.84351 1415 ft 159 kts 260°
2026-04-22 11:31 32.00636 34.82608 2064 ft 172 kts 258°
2026-04-22 11:31 32.00323 34.81112 2249 ft 201 kts 258°
2026-04-22 11:31 32.00168 34.79970 2441 ft 215 kts 274°
2026-04-22 11:31 32.01009 34.77854 3249 ft 225 kts 319°
2026-04-22 11:32 32.02426 34.77090 3991 ft 231 kts 352°
2026-04-22 11:32 32.03491 34.77151 4477 ft 236 kts 12°
2026-04-22 11:32 32.04944 34.78105 5196 ft 245 kts 43°
2026-04-22 11:32 32.05899 34.79834 5691 ft 263 kts 63°
2026-04-22 11:33 32.06931 34.82582 6103 ft 273 kts 65°
2026-04-22 11:33 32.07432 34.83937 6301 ft 276 kts 65°
2026-04-22 11:33 32.08077 34.86967 7044 ft 291 kts 96°
2026-04-22 11:33 32.07738 34.88488 7468 ft 293 kts 118°
2026-04-22 11:34 32.06652 34.90548 8182 ft 297 kts 122°
2026-04-22 11:34 32.05436 34.93517 8823 ft 306 kts 114°
2026-04-22 11:34 32.04723 34.95866 8955 ft 304 kts 110°
2026-04-22 11:34 32.04094 34.98323 9022 ft 305 kts 108°
2026-04-22 11:35 32.03538 35.00742 9009 ft 308 kts 107°
2026-04-22 11:35 32.02983 35.03307 8974 ft 333 kts 106°
2026-04-22 11:35 32.02615 35.05082 8960 ft 334 kts 106°
2026-04-22 11:35 32.02069 35.07778 8976 ft 337 kts 106°
2026-04-22 11:36 32.01353 35.11369 8998 ft 338 kts 105°
2026-04-22 11:36 32.00995 35.13182 9000 ft 338 kts 105°
2026-04-22 11:36 32.00456 35.15916 9000 ft 338 kts 105°
2026-04-22 11:36 31.99924 35.18609 8993 ft 339 kts 105°
2026-04-22 11:37 31.99377 35.21384 8959 ft 346 kts 105°
2026-04-22 11:37 31.98641 35.25115 9028 ft 353 kts 105°
2026-04-22 11:37 31.98088 35.27917 9028 ft 347 kts 105°
2026-04-22 11:37 31.97721 35.29779 8999 ft 343 kts 105°
2026-04-22 11:38 31.96986 35.33492 8980 ft 347 kts 105°
2026-04-22 11:38 31.96430 35.36300 9003 ft 348 kts 105°
2026-04-22 11:38 31.95322 35.41883 9026 ft 347 kts 105°
2026-04-22 11:39 31.94761 35.44707 9032 ft 347 kts 105°
2026-04-22 11:39 31.94393 35.46553 9035 ft 346 kts 105°
2026-04-22 11:39 31.93838 35.49337 9121 ft 356 kts 105°
2026-04-22 11:39 31.93256 35.53196 10238 ft 360 kts 95°
2026-04-22 11:40 31.93182 35.56148 11105 ft 361 kts 94°
2026-04-22 11:40 31.93144 35.58128 11640 ft 362 kts 94°
2026-04-22 11:40 31.92998 35.61120 12368 ft 361 kts 105°
2026-04-22 11:40 31.92017 35.63822 13005 ft 353 kts 131°
2026-04-22 11:41 31.90441 35.66050 13612 ft 358 kts 133°
2026-04-22 11:41 31.88911 35.68385 14225 ft 364 kts 133°
2026-04-22 11:41 31.87355 35.70744 14903 ft 367 kts 133°
2026-04-22 11:41 31.85763 35.73140 15557 ft 370 kts 134°
2026-04-22 11:42 31.84152 35.75557 16182 ft 374 kts 134°
2026-04-22 11:42 31.82512 35.78011 16782 ft 379 kts 134°
2026-04-22 11:42 31.80860 35.80482 17360 ft 383 kts 134°
2026-04-22 11:42 31.78641 35.83797 18118 ft 389 kts 134°
2026-04-22 11:43 31.77487 35.85518 18493 ft 392 kts 134°
2026-04-22 11:43 31.75776 35.88070 19022 ft 396 kts 134°
2026-04-22 11:43 31.74045 35.90650 19560 ft 400 kts 134°
2026-04-22 11:43 31.72319 35.93221 20077 ft 404 kts 135°
2026-04-22 11:44 31.70564 35.95832 20579 ft 409 kts 135°
2026-04-22 11:44 31.68786 35.98478 21080 ft 413 kts 135°
2026-04-22 11:44 31.66986 36.01152 21555 ft 417 kts 135°
2026-04-22 11:44 31.65151 36.03879 22041 ft 421 kts 135°
2026-04-22 11:45 31.63326 36.06586 22477 ft 426 kts 135°
2026-04-22 11:45 31.61472 36.09336 22933 ft 430 kts 135°
2026-04-22 11:45 31.58975 36.13038 23514 ft 435 kts 135°
2026-04-22 11:45 31.57719 36.14897 23807 ft 437 kts 135°
2026-04-22 11:46 31.55816 36.17713 24225 ft 441 kts 135°
2026-04-22 11:46 31.53886 36.20566 24609 ft 446 kts 135°
2026-04-22 11:46 31.51302 36.24386 25149 ft 450 kts 135°
2026-04-22 11:46 31.49998 36.26311 25433 ft 452 kts 135°
2026-04-22 11:47 31.48025 36.29221 25795 ft 457 kts 135°
2026-04-22 11:47 31.46028 36.32166 26170 ft 461 kts 135°
2026-04-22 11:47 31.44020 36.35125 26555 ft 464 kts 135°
2026-04-22 11:47 31.42004 36.38093 26936 ft 468 kts 135°
2026-04-22 11:48 31.39958 36.41102 27287 ft 472 kts 135°
2026-04-22 11:48 31.37887 36.44147 27648 ft 475 kts 135°
2026-04-22 11:48 31.35809 36.47199 27998 ft 479 kts 135°
2026-04-22 11:48 31.33728 36.50252 28334 ft 483 kts 135°
2026-04-22 11:49 31.31665 36.53434 28764 ft 489 kts 126°
2026-04-22 11:49 31.30358 36.57149 29213 ft 500 kts 105°
2026-04-22 11:49 31.30094 36.61235 29610 ft 505 kts 88°
2026-04-22 11:49 31.30207 36.65393 30000 ft 506 kts 90°
2026-04-22 11:50 31.30126 36.69497 30290 ft 508 kts 95°
2026-04-22 11:50 31.29883 36.73613 30686 ft 507 kts 96°
2026-04-22 11:50 31.29582 36.77723 31118 ft 506 kts 96°
2026-04-22 11:50 31.29270 36.81865 31507 ft 505 kts 96°
2026-04-22 11:51 31.28962 36.85975 31861 ft 505 kts 96°
2026-04-22 11:51 31.28656 36.90089 32182 ft 506 kts 96°
2026-04-22 11:51 31.28347 36.94218 32493 ft 506 kts 96°
2026-04-22 11:51 31.28041 36.98302 32797 ft 507 kts 95°
2026-04-22 11:52 31.27734 37.02388 33137 ft 506 kts 95°
2026-04-22 11:52 31.27421 37.06523 33484 ft 505 kts 95°
2026-04-22 11:52 31.27110 37.10622 33825 ft 503 kts 94°
2026-04-22 11:52 31.26800 37.14681 34150 ft 502 kts 94°
2026-04-22 11:53 31.26488 37.18758 34477 ft 500 kts 94°
2026-04-22 11:53 31.26175 37.22822 34807 ft 498 kts 95°
2026-04-22 11:53 31.25477 37.26748 35069 ft 496 kts 109°
2026-04-22 11:53 31.24298 37.30566 35287 ft 496 kts 112°
2026-04-22 11:54 31.23057 37.34349 35491 ft 496 kts 112°
2026-04-22 11:54 31.21840 37.38200 35710 ft 497 kts 111°
2026-04-22 11:54 31.20668 37.42033 35944 ft 496 kts 110°
2026-04-22 11:54 31.19504 37.45889 36181 ft 495 kts 110°
2026-04-22 11:55 31.18351 37.49707 36392 ft 494 kts 110°
2026-04-22 11:55 31.17197 37.53523 36575 ft 494 kts 110°
2026-04-22 11:55 31.16053 37.57295 36739 ft 495 kts 110°
2026-04-22 11:55 31.14888 37.61123 36898 ft 495 kts 110°
2026-04-22 11:56 31.13704 37.65003 37024 ft 495 kts 110°
2026-04-22 11:56 31.12558 37.68776 36988 ft 495 kts 111°
2026-04-22 11:56 31.10259 37.76374 37000 ft 492 kts 111°
2026-04-22 11:57 31.07950 37.83966 36991 ft 491 kts 111°
2026-04-22 11:57 31.05627 37.91571 36995 ft 492 kts 111°
2026-04-22 11:58 31.03276 37.99246 37001 ft 492 kts 111°
2026-04-22 11:58 31.00953 38.06815 37008 ft 492 kts 111°
2026-04-22 11:59 30.98622 38.14389 37017 ft 493 kts 110°
2026-04-22 11:59 30.96283 38.21969 37024 ft 494 kts 110°
2026-04-22 12:00 30.93921 38.29610 37023 ft 495 kts 110°
2026-04-22 12:00 30.91558 38.37235 37023 ft 495 kts 110°
2026-04-22 12:01 30.89188 38.44846 37003 ft 496 kts 110°
2026-04-22 12:01 30.86797 38.52443 37023 ft 496 kts 110°
2026-04-22 12:02 30.84437 38.59997 37024 ft 496 kts 110°
2026-04-22 12:02 30.82047 38.67640 36975 ft 497 kts 110°
2026-04-22 12:03 30.79631 38.75372 37022 ft 496 kts 110°
2026-04-22 12:03 30.76730 38.82758 37025 ft 495 kts 119°
2026-04-22 12:04 30.73515 38.90037 37026 ft 495 kts 118°
2026-04-22 12:04 30.70438 38.97196 37030 ft 490 kts 117°
2026-04-22 12:05 30.67399 39.04280 37023 ft 484 kts 117°
2026-04-22 12:05 30.64385 39.11288 37021 ft 480 kts 117°
2026-04-22 12:06 30.61390 39.18235 37016 ft 478 kts 117°
2026-04-22 12:06 30.58386 39.25191 37029 ft 479 kts 117°
2026-04-22 12:07 30.55370 39.32163 37043 ft 480 kts 117°
2026-04-22 12:07 30.52342 39.39149 37051 ft 480 kts 117°
2026-04-22 12:08 30.49320 39.46109 37050 ft 480 kts 117°
2026-04-22 12:08 30.46301 39.53049 37049 ft 480 kts 117°
2026-04-22 12:09 30.43242 39.60069 37049 ft 480 kts 117°
2026-04-22 12:09 30.40228 39.67120 37008 ft 481 kts 116°
2026-04-22 12:10 30.37433 39.74182 37047 ft 481 kts 115°
2026-04-22 12:10 30.34616 39.81298 37052 ft 482 kts 115°
2026-04-22 12:11 30.31797 39.88385 37051 ft 481 kts 115°
2026-04-22 12:11 30.28972 39.95467 37049 ft 481 kts 115°
2026-04-22 12:12 30.26157 40.02514 37049 ft 481 kts 115°
2026-04-22 12:12 30.23317 40.09610 37050 ft 481 kts 115°
2026-04-22 12:13 30.20469 40.16712 37050 ft 481 kts 115°
2026-04-22 12:13 30.17609 40.23831 37050 ft 481 kts 115°
2026-04-22 12:14 30.14767 40.30889 37050 ft 481 kts 115°
2026-04-22 12:14 30.11927 40.37930 37050 ft 481 kts 115°
2026-04-22 12:15 30.09048 40.44975 37050 ft 481 kts 115°
2026-04-22 12:15 30.06119 40.52194 37050 ft 481 kts 115°
2026-04-22 12:16 30.03278 40.59203 37050 ft 481 kts 115°
2026-04-22 12:16 30.00386 40.66325 37027 ft 482 kts 116°
2026-04-22 12:17 29.97504 40.73431 37050 ft 481 kts 116°
2026-04-22 12:17 29.94618 40.80514 37050 ft 481 kts 116°
2026-04-22 12:18 29.91757 40.87516 37062 ft 476 kts 116°
2026-04-22 12:18 29.88922 40.94426 37029 ft 467 kts 117°
2026-04-22 12:19 29.86133 41.01174 37046 ft 459 kts 117°
2026-04-22 12:19 29.83372 41.07890 37037 ft 455 kts 117°
2026-04-22 12:20 29.80653 41.14497 37024 ft 456 kts 117°
2026-04-22 12:20 29.77900 41.21174 37018 ft 458 kts 117°
2026-04-22 12:21 29.75141 41.27855 37003 ft 457 kts 117°
2026-04-22 12:21 29.72606 41.34665 36996 ft 459 kts 111°
2026-04-22 12:22 29.70472 41.41666 37002 ft 461 kts 110°
2026-04-22 12:22 29.68307 41.48676 37003 ft 461 kts 110°
2026-04-22 12:23 29.66137 41.55637 36996 ft 461 kts 110°
2026-04-22 12:23 29.63951 41.62633 36994 ft 460 kts 110°
2026-04-22 12:24 29.61779 41.69588 36973 ft 460 kts 111°
2026-04-22 12:24 29.59565 41.76663 36995 ft 460 kts 111°
2026-04-22 12:25 29.57381 41.83609 36992 ft 461 kts 111°
2026-04-22 12:25 29.55186 41.90576 36982 ft 461 kts 111°
2026-04-22 12:26 29.52988 41.97537 36973 ft 460 kts 111°
2026-04-22 12:26 29.50784 42.04506 36968 ft 461 kts 111°
2026-04-22 12:27 29.48594 42.11412 36968 ft 460 kts 111°
2026-04-22 12:27 29.46378 42.18390 36968 ft 461 kts 111°
2026-04-22 12:28 29.44174 42.25313 36968 ft 461 kts 111°
2026-04-22 12:28 29.41954 42.32272 36969 ft 460 kts 111°
2026-04-22 12:29 29.39742 42.39191 36968 ft 461 kts 111°
2026-04-22 12:29 29.37519 42.46130 36968 ft 461 kts 111°
2026-04-22 12:30 29.34187 42.56509 36968 ft 461 kts 111°
2026-04-22 12:31 29.31958 42.63432 36968 ft 460 kts 111°
2026-04-22 12:31 29.29720 42.70386 36952 ft 460 kts 111°
2026-04-22 12:32 29.27496 42.77279 36969 ft 460 kts 111°
2026-04-22 12:32 29.24130 42.87664 36970 ft 461 kts 111°
2026-04-22 12:33 29.21896 42.94543 36969 ft 460 kts 111°
2026-04-22 12:33 29.19639 43.01476 36972 ft 459 kts 112°
2026-04-22 12:34 29.17400 43.08338 36971 ft 456 kts 112°
2026-04-22 12:34 29.14698 43.14830 36969 ft 449 kts 124°
2026-04-22 12:35 29.11428 43.20967 36969 ft 447 kts 124°
2026-04-22 12:35 29.08245 43.27139 36960 ft 448 kts 123°
2026-04-22 12:36 29.05081 43.33320 36968 ft 450 kts 124°
2026-04-22 12:36 29.01896 43.39536 36970 ft 451 kts 124°
2026-04-22 12:37 28.98699 43.45764 36968 ft 452 kts 124°
2026-04-22 12:37 28.95498 43.51990 36968 ft 453 kts 124°
2026-04-22 12:38 28.92264 43.58234 36970 ft 453 kts 124°
2026-04-22 12:38 28.89037 43.64477 36945 ft 454 kts 124°
2026-04-22 12:39 28.84208 43.73808 36969 ft 453 kts 124°
2026-04-22 12:40 28.80974 43.80057 36969 ft 453 kts 124°
2026-04-22 12:40 28.77755 43.86267 36969 ft 453 kts 124°
2026-04-22 12:41 28.73993 43.93515 36968 ft 453 kts 124°
2026-04-22 12:41 28.71298 43.98698 36968 ft 453 kts 124°
2026-04-22 12:42 28.68077 44.04885 36968 ft 453 kts 124°
2026-04-22 12:42 28.64851 44.11071 36968 ft 453 kts 124°
2026-04-22 12:43 28.61606 44.17284 36968 ft 453 kts 124°
2026-04-22 12:43 28.58365 44.23481 36968 ft 453 kts 124°
2026-04-22 12:44 28.55115 44.29688 36968 ft 453 kts 124°
2026-04-22 12:44 28.51874 44.35866 36968 ft 453 kts 124°
2026-04-22 12:45 28.48614 44.42073 36968 ft 453 kts 124°
2026-04-22 12:45 28.45373 44.48233 36962 ft 453 kts 124°
2026-04-22 12:46 28.42121 44.54406 36955 ft 453 kts 124°
2026-04-22 12:46 28.38851 44.60603 36948 ft 453 kts 124°
2026-04-22 12:47 28.35583 44.66791 36906 ft 454 kts 125°
2026-04-22 12:47 28.32340 44.72945 36940 ft 452 kts 125°
2026-04-22 12:48 28.29089 44.79082 36942 ft 453 kts 125°
2026-04-22 12:48 28.25822 44.85239 36942 ft 453 kts 125°
2026-04-22 12:49 28.22542 44.91410 36943 ft 452 kts 125°
2026-04-22 12:49 28.19292 44.97517 36943 ft 450 kts 126°
2026-04-22 12:50 28.16042 45.03614 36941 ft 448 kts 126°
2026-04-22 12:50 28.12771 45.09667 36941 ft 446 kts 127°
2026-04-22 12:51 28.09505 45.15691 36934 ft 444 kts 127°
2026-04-22 12:51 28.06273 45.21728 36938 ft 445 kts 127°
2026-04-22 12:52 28.03048 45.27753 36944 ft 446 kts 127°
2026-04-22 12:52 27.99802 45.33808 36940 ft 445 kts 127°
2026-04-22 12:53 27.96551 45.39864 36942 ft 446 kts 127°
2026-04-22 12:53 27.93308 45.45895 36941 ft 445 kts 127°
2026-04-22 12:54 27.90059 45.51929 36941 ft 445 kts 127°
2026-04-22 12:54 27.87322 45.58286 36953 ft 455 kts 108°
2026-04-22 12:55 27.85964 45.65451 36942 ft 460 kts 106°
2026-04-22 12:55 27.84573 45.72571 36941 ft 458 kts 107°
2026-04-22 12:56 27.83127 45.79626 36942 ft 458 kts 107°
2026-04-22 12:56 27.81664 45.86724 36940 ft 458 kts 107°
2026-04-22 12:57 27.80207 45.93777 36942 ft 458 kts 107°
2026-04-22 12:57 27.78749 46.00820 36939 ft 458 kts 107°
2026-04-22 12:58 27.77276 46.07913 36944 ft 458 kts 107°
2026-04-22 12:58 27.75804 46.14980 36941 ft 458 kts 107°
2026-04-22 12:59 27.74335 46.22016 36941 ft 458 kts 107°
2026-04-22 12:59 27.72832 46.29122 36945 ft 457 kts 108°
2026-04-22 13:00 27.71356 46.36156 36940 ft 457 kts 107°
2026-04-22 13:00 27.69873 46.43259 36940 ft 457 kts 107°
2026-04-22 13:01 27.68398 46.50304 36941 ft 457 kts 107°
2026-04-22 13:01 27.66902 46.57431 36940 ft 457 kts 107°
2026-04-22 13:02 27.65427 46.64434 36941 ft 457 kts 107°
2026-04-22 13:02 27.63945 46.71483 36932 ft 456 kts 108°
2026-04-22 13:03 27.62443 46.78593 36942 ft 457 kts 108°
2026-04-22 13:03 27.60941 46.85672 36939 ft 458 kts 108°
2026-04-22 13:04 27.59439 46.92730 36940 ft 460 kts 109°
2026-04-22 13:04 27.57929 46.99808 36942 ft 461 kts 109°
2026-04-22 13:05 27.56413 47.06892 36941 ft 462 kts 109°
2026-04-22 13:05 27.54890 47.13995 36944 ft 461 kts 109°
2026-04-22 13:06 27.53368 47.21075 36940 ft 461 kts 110°
2026-04-22 13:06 27.51836 47.28178 36942 ft 461 kts 110°
2026-04-22 13:07 27.50301 47.35277 36943 ft 462 kts 109°
2026-04-22 13:07 27.48767 47.42356 36939 ft 461 kts 109°
2026-04-22 13:08 27.47224 47.49456 36943 ft 461 kts 110°
2026-04-22 13:08 27.45687 47.56508 36940 ft 461 kts 110°
2026-04-22 13:09 27.44055 47.63586 36940 ft 458 kts 114°
2026-04-22 13:09 27.42053 47.70455 36926 ft 456 kts 115°
2026-04-22 13:10 27.40093 47.77298 36943 ft 457 kts 114°
2026-04-22 13:10 27.38144 47.84165 36923 ft 458 kts 114°
2026-04-22 13:11 27.36183 47.91068 36889 ft 458 kts 114°
2026-04-22 13:11 27.34230 47.97922 36854 ft 458 kts 114°
2026-04-22 13:12 27.32267 48.04800 36830 ft 458 kts 114°
2026-04-22 13:12 27.30321 48.11761 36831 ft 458 kts 113°
2026-04-22 13:13 27.28483 48.18716 36831 ft 459 kts 113°
2026-04-22 13:13 27.26652 48.25652 36836 ft 459 kts 113°
2026-04-22 13:14 27.24814 48.32584 36833 ft 459 kts 113°
2026-04-22 13:14 27.22968 48.39531 36833 ft 459 kts 113°
2026-04-22 13:15 27.21128 48.46442 36831 ft 459 kts 113°
2026-04-22 13:15 27.19282 48.53359 36834 ft 459 kts 113°
2026-04-22 13:16 27.17440 48.60244 36832 ft 459 kts 113°
2026-04-22 13:16 27.15588 48.67158 36791 ft 460 kts 113°
2026-04-22 13:17 27.13731 48.74104 36834 ft 458 kts 113°
2026-04-22 13:17 27.11881 48.80979 36834 ft 458 kts 113°
2026-04-22 13:18 27.10030 48.87886 36828 ft 460 kts 110°
2026-04-22 13:18 27.09564 48.91462 36830 ft 469 kts 98°
2026-04-22 13:18 27.09428 48.95175 36836 ft 471 kts 96°
2026-04-22 13:19 27.09204 49.02531 36835 ft 470 kts 97°
2026-04-22 13:19 27.08875 49.10074 36831 ft 470 kts 98°
2026-04-22 13:20 27.08534 49.17448 36833 ft 470 kts 98°
2026-04-22 13:20 27.08186 49.24934 36833 ft 471 kts 98°
2026-04-22 13:21 27.07821 49.32313 36838 ft 470 kts 98°
2026-04-22 13:21 27.07452 49.39654 36835 ft 469 kts 98°
2026-04-22 13:22 27.07098 49.47009 36832 ft 470 kts 98°
2026-04-22 13:22 27.06740 49.54401 36833 ft 470 kts 98°
2026-04-22 13:23 27.06380 49.61759 36831 ft 470 kts 98°
2026-04-22 13:23 27.06018 49.69103 36800 ft 469 kts 99°
2026-04-22 13:24 27.05651 49.76482 36832 ft 469 kts 99°
2026-04-22 13:24 27.05279 49.83839 36833 ft 470 kts 99°
2026-04-22 13:25 27.04905 49.91178 36837 ft 469 kts 99°
2026-04-22 13:25 27.04575 49.98558 36827 ft 471 kts 96°
2026-04-22 13:26 27.04636 50.05953 36833 ft 473 kts 94°
2026-04-22 13:26 27.04727 50.13391 36834 ft 473 kts 94°
2026-04-22 13:27 27.04795 50.20839 36833 ft 472 kts 94°
2026-04-22 13:27 27.04863 50.28282 36832 ft 472 kts 94°
2026-04-22 13:28 27.04924 50.35657 36834 ft 472 kts 95°
2026-04-22 13:28 27.04479 50.39262 36824 ft 454 kts 116°
2026-04-22 13:28 27.03267 50.42561 36836 ft 449 kts 122°
2026-04-22 13:29 27.00613 50.48973 36841 ft 451 kts 121°
2026-04-22 13:29 26.98103 50.55490 36832 ft 451 kts 119°
2026-04-22 13:30 26.95622 50.62012 36828 ft 452 kts 119°
2026-04-22 13:30 26.93147 50.68529 36802 ft 452 kts 119°
2026-04-22 13:31 26.90662 50.75078 36834 ft 451 kts 119°
2026-04-22 13:31 26.88176 50.81556 36827 ft 450 kts 118°
2026-04-22 13:32 26.85673 50.88042 36832 ft 450 kts 118°
2026-04-22 13:32 26.83190 50.94519 36832 ft 451 kts 118°
2026-04-22 13:33 26.80695 51.01057 36833 ft 452 kts 118°
2026-04-22 13:33 26.78214 51.07578 36834 ft 452 kts 117°
2026-04-22 13:34 26.75944 51.14247 36834 ft 454 kts 113°
2026-04-22 13:34 26.73804 51.21030 36835 ft 454 kts 114°
2026-04-22 13:35 26.71646 51.27781 36831 ft 454 kts 114°
2026-04-22 13:35 26.69495 51.34478 36834 ft 454 kts 114°
2026-04-22 13:36 26.67324 51.41224 36833 ft 454 kts 114°
2026-04-22 13:36 26.65138 51.47995 36833 ft 454 kts 114°
2026-04-22 13:37 26.62978 51.54703 36833 ft 453 kts 114°
2026-04-22 13:37 26.60828 51.61389 36832 ft 453 kts 114°
2026-04-22 13:38 26.58686 51.68048 36793 ft 454 kts 114°
2026-04-22 13:38 26.55432 51.78114 36834 ft 454 kts 114°
2026-04-22 13:39 26.53245 51.84870 36835 ft 454 kts 114°
2026-04-22 13:39 26.51067 51.91499 36836 ft 453 kts 115°
2026-04-22 13:40 26.48859 51.98138 36840 ft 453 kts 114°
2026-04-22 13:40 26.46635 52.04825 36844 ft 453 kts 114°
2026-04-22 13:41 26.44436 52.11431 36784 ft 454 kts 114°
2026-04-22 13:41 26.42211 52.18077 36801 ft 452 kts 115°
2026-04-22 13:42 26.39977 52.24740 36826 ft 453 kts 114°
2026-04-22 13:42 26.37759 52.31363 36843 ft 454 kts 114°
2026-04-22 13:43 26.35514 52.38042 36849 ft 453 kts 115°
2026-04-22 13:43 26.33053 52.44542 36841 ft 452 kts 117°
2026-04-22 13:44 26.30533 52.51067 36846 ft 452 kts 117°
2026-04-22 13:44 26.28005 52.57657 36858 ft 452 kts 117°
2026-04-22 13:45 26.25520 52.64127 36860 ft 452 kts 117°
2026-04-22 13:45 26.23041 52.70596 36848 ft 451 kts 117°
2026-04-22 13:46 26.20553 52.77099 36857 ft 452 kts 117°
2026-04-22 13:46 26.18058 52.83616 36863 ft 452 kts 117°
2026-04-22 13:47 26.15580 52.90080 36860 ft 451 kts 117°
2026-04-22 13:47 26.13085 52.96578 36859 ft 451 kts 117°
2026-04-22 13:48 26.10583 53.03086 36862 ft 451 kts 117°
2026-04-22 13:48 26.08173 53.09566 36860 ft 452 kts 116°
2026-04-22 13:49 26.05771 53.16117 36866 ft 451 kts 116°
2026-04-22 13:49 26.03376 53.22635 36859 ft 451 kts 116°
2026-04-22 13:50 26.00975 53.29155 36862 ft 452 kts 116°
2026-04-22 13:50 25.98569 53.35677 36860 ft 451 kts 116°
2026-04-22 13:51 25.96167 53.42178 36859 ft 452 kts 116°
2026-04-22 13:51 25.93752 53.48703 36860 ft 452 kts 116°
2026-04-22 13:52 25.91425 53.55321 36862 ft 452 kts 114°
2026-04-22 13:52 25.89168 53.61876 36842 ft 453 kts 114°
2026-04-22 13:53 25.86904 53.68396 36826 ft 453 kts 115°
2026-04-22 13:53 25.84639 53.74943 36679 ft 455 kts 115°
2026-04-22 13:54 25.83491 53.78247 36200 ft 454 kts 115°
2026-04-22 13:54 25.82365 53.81490 35704 ft 451 kts 115°
2026-04-22 13:54 25.81238 53.84741 35202 ft 449 kts 115°
2026-04-22 13:54 25.80123 53.87951 34705 ft 445 kts 115°
2026-04-22 13:55 25.79011 53.91150 34202 ft 442 kts 115°
2026-04-22 13:55 25.77903 53.94338 33701 ft 440 kts 115°
2026-04-22 13:55 25.76794 53.97520 33207 ft 439 kts 115°
2026-04-22 13:55 25.75687 54.00707 32708 ft 439 kts 114°
2026-04-22 13:56 25.74681 54.03863 32223 ft 439 kts 113°
2026-04-22 13:56 25.73690 54.07111 31723 ft 438 kts 112°
2026-04-22 13:56 25.72710 54.10331 31224 ft 438 kts 112°
2026-04-22 13:56 25.71739 54.13506 30735 ft 436 kts 113°
2026-04-22 13:57 25.70756 54.16708 30233 ft 435 kts 113°
2026-04-22 13:57 25.69788 54.19856 29743 ft 435 kts 113°
2026-04-22 13:57 25.68798 54.23071 29242 ft 434 kts 113°
2026-04-22 13:57 25.67819 54.26248 28744 ft 432 kts 113°
2026-04-22 13:58 25.66844 54.29411 28245 ft 431 kts 113°
2026-04-22 13:58 25.65873 54.32555 27748 ft 429 kts 113°
2026-04-22 13:58 25.64890 54.35719 27247 ft 428 kts 113°
2026-04-22 13:58 25.63920 54.38834 26751 ft 426 kts 113°
2026-04-22 13:59 25.62944 54.41981 26248 ft 425 kts 113°
2026-04-22 13:59 25.61985 54.45069 25753 ft 423 kts 112°
2026-04-22 13:59 25.61028 54.48151 25251 ft 419 kts 112°
2026-04-22 13:59 25.60085 54.51188 24745 ft 410 kts 112°
2026-04-22 14:00 25.59153 54.54187 24234 ft 402 kts 112°
2026-04-22 14:00 25.58256 54.57068 23727 ft 393 kts 112°
2026-04-22 14:00 25.57675 54.60031 23202 ft 392 kts 94°
2026-04-22 14:00 25.58030 54.63059 22721 ft 398 kts 82°
2026-04-22 14:01 25.58555 54.66066 22204 ft 395 kts 83°
2026-04-22 14:01 25.59018 54.69093 21697 ft 386 kts 84°
2026-04-22 14:01 25.59413 54.71937 21623 ft 361 kts 85°
2026-04-22 14:01 25.59772 54.74639 21592 ft 338 kts 86°
2026-04-22 14:02 25.60101 54.77182 21449 ft 320 kts 86°
2026-04-22 14:02 25.60408 54.79593 21042 ft 312 kts 86°
2026-04-22 14:02 25.60710 54.81985 20521 ft 309 kts 86°
2026-04-22 14:02 25.61006 54.84339 19997 ft 305 kts 86°
2026-04-22 14:03 25.60927 54.86642 19433 ft 294 kts 112°
2026-04-22 14:03 25.59924 54.88569 18872 ft 287 kts 128°
2026-04-22 14:03 25.58714 54.90374 18303 ft 286 kts 126°
2026-04-22 14:03 25.57912 54.92403 17751 ft 286 kts 109°
2026-04-22 14:04 25.57329 54.94500 17217 ft 283 kts 109°
2026-04-22 14:04 25.56719 54.96591 16694 ft 281 kts 110°
2026-04-22 14:04 25.56095 54.98642 16173 ft 278 kts 110°
2026-04-22 14:04 25.55468 55.00656 15659 ft 276 kts 110°
2026-04-22 14:05 25.54830 55.02674 15138 ft 274 kts 111°
2026-04-22 14:05 25.54018 55.04555 14627 ft 271 kts 120°
2026-04-22 14:05 25.52141 55.08178 13604 ft 267 kts 120°
2026-04-22 14:06 25.51213 55.09966 13101 ft 265 kts 120°
2026-04-22 14:06 25.50295 55.11734 12603 ft 263 kts 120°
2026-04-22 14:06 25.49377 55.13504 12104 ft 261 kts 120°
2026-04-22 14:06 25.48461 55.15270 11609 ft 259 kts 120°
2026-04-22 14:07 25.47575 55.16978 11138 ft 257 kts 120°
2026-04-22 14:07 25.46691 55.18680 10801 ft 248 kts 120°
2026-04-22 14:07 25.45766 55.20248 10612 ft 236 kts 130°
2026-04-22 14:07 25.44681 55.21593 10316 ft 229 kts 131°
2026-04-22 14:08 25.43611 55.22901 10204 ft 230 kts 131°
2026-04-22 14:08 25.42532 55.24223 10219 ft 230 kts 131°
2026-04-22 14:08 25.41454 55.25546 10240 ft 231 kts 131°
2026-04-22 14:08 25.40376 55.26869 10247 ft 232 kts 131°
2026-04-22 14:09 25.39295 55.28196 10177 ft 229 kts 131°
2026-04-22 14:09 25.38216 55.29521 9770 ft 231 kts 130°
2026-04-22 14:09 25.37145 55.30836 9413 ft 230 kts 130°
2026-04-22 14:09 25.36070 55.32149 9063 ft 229 kts 132°
2026-04-22 14:10 25.34782 55.33166 8697 ft 231 kts 149°
2026-04-22 14:10 25.33356 55.34003 8360 ft 229 kts 149°
2026-04-22 14:10 25.31960 55.34821 8214 ft 228 kts 149°
2026-04-22 14:10 25.30554 55.35644 8207 ft 229 kts 149°
2026-04-22 14:11 25.29140 55.36474 8235 ft 230 kts 149°
2026-04-22 14:11 25.27716 55.37308 8227 ft 232 kts 149°
2026-04-22 14:11 25.26253 55.38166 8133 ft 239 kts 149°
2026-04-22 14:11 25.24784 55.39026 8030 ft 238 kts 150°
2026-04-22 14:12 25.23305 55.39893 8002 ft 236 kts 149°
2026-04-22 14:12 25.21845 55.40748 7993 ft 239 kts 149°
2026-04-22 14:12 25.20343 55.41628 8007 ft 242 kts 149°
2026-04-22 14:12 25.18853 55.42500 8032 ft 240 kts 149°
2026-04-22 14:13 25.17387 55.43356 8023 ft 239 kts 149°
2026-04-22 14:13 25.15883 55.44233 8019 ft 238 kts 149°
2026-04-22 14:13 25.14423 55.45087 8014 ft 240 kts 149°
2026-04-22 14:13 25.12932 55.45957 7747 ft 240 kts 149°
2026-04-22 14:14 25.11486 55.46864 7307 ft 239 kts 138°
2026-04-22 14:14 25.10472 55.48284 6944 ft 231 kts 120°
2026-04-22 14:14 25.09620 55.49810 6453 ft 234 kts 120°
2026-04-22 14:14 25.08771 55.51334 6109 ft 233 kts 119°
2026-04-22 14:15 25.07912 55.52877 5980 ft 231 kts 120°
2026-04-22 14:15 25.07068 55.54385 5657 ft 230 kts 119°
2026-04-22 14:15 25.06213 55.55914 5215 ft 233 kts 120°
2026-04-22 14:15 25.05359 55.57440 5045 ft 233 kts 120°
2026-04-22 14:16 25.04509 55.58959 4985 ft 232 kts 120°
2026-04-22 14:16 25.03658 55.60492 4995 ft 231 kts 119°
2026-04-22 14:16 25.02821 55.62004 5008 ft 231 kts 119°
2026-04-22 14:16 25.01975 55.63535 5009 ft 232 kts 119°
2026-04-22 14:17 25.01126 55.65071 5019 ft 233 kts 120°
2026-04-22 14:17 25.00269 55.66616 5010 ft 233 kts 120°
2026-04-22 14:17 24.99414 55.68152 5016 ft 233 kts 120°
2026-04-22 14:17 24.98559 55.69686 5022 ft 236 kts 120°
2026-04-22 14:18 24.97698 55.71224 5038 ft 232 kts 120°
2026-04-22 14:18 24.97120 55.72815 5026 ft 214 kts 92°
2026-04-22 14:18 24.97433 55.74320 5023 ft 190 kts 53°
2026-04-22 14:18 24.98463 55.75165 5047 ft 188 kts 14°
2026-04-22 14:19 24.99751 55.75086 5057 ft 190 kts 339°
2026-04-22 14:19 25.00962 55.74465 5052 ft 190 kts 335°
2026-04-22 14:19 25.02139 55.73815 4943 ft 186 kts 335°
2026-04-22 14:19 25.03315 55.73159 4552 ft 189 kts 335°
2026-04-22 14:20 25.05639 55.71859 3999 ft 183 kts 335°
2026-04-22 14:20 25.06754 55.71135 3944 ft 187 kts 316°
2026-04-22 14:20 25.07464 55.69914 4015 ft 192 kts 298°
2026-04-22 14:21 25.08423 55.67115 4034 ft 193 kts 293°
2026-04-22 14:21 25.08950 55.65752 4037 ft 188 kts 297°
2026-04-22 14:22 25.10218 55.63213 4005 ft 200 kts 304°
2026-04-22 14:22 25.11021 55.61845 4015 ft 210 kts 306°
2026-04-22 14:22 25.12606 55.59187 3409 ft 206 kts 305°
2026-04-22 14:23 25.13380 55.57861 3120 ft 201 kts 304°
2026-04-22 14:23 25.14133 55.56536 2966 ft 207 kts 303°
2026-04-22 14:23 25.14905 55.55160 2989 ft 208 kts 303°
2026-04-22 14:23 25.15634 55.53838 3029 ft 189 kts 303°
2026-04-22 14:24 25.16279 55.52665 2915 ft 171 kts 303°
2026-04-22 14:24 25.16934 55.51484 2652 ft 179 kts 303°
2026-04-22 14:24 25.17566 55.50342 2348 ft 172 kts 303°
2026-04-22 14:24 25.18206 55.49190 2101 ft 176 kts 303°
2026-04-22 14:25 25.18849 55.48037 1864 ft 170 kts 303°
2026-04-22 14:25 25.19462 55.46932 1634 ft 168 kts 304°
2026-04-22 14:25 25.20085 55.45813 1403 ft 170 kts 303°
2026-04-22 14:25 25.20711 55.44685 1173 ft 170 kts 303°
2026-04-22 14:26 25.21318 55.43589 971 ft 156 kts 303°
2026-04-22 14:26 25.21856 55.42619 726 ft 138 kts 304°
2026-04-22 14:26 25.22351 55.41721 553 ft 140 kts 303°
2026-04-22 14:26 25.22872 55.40772 408 ft 147 kts 303°
2026-04-22 14:27 25.23430 55.39769 192 ft 157 kts 302°
2026-04-22 14:27 25.24019 55.38709 52 ft 162 kts 303°
2026-04-22 14:27 25.24612 55.37632 142 ft 166 kts 303°
2026-04-22 14:27 25.25293 55.36502 781 ft 192 kts 305°
2026-04-22 14:28 25.25991 55.35326 1305 ft 177 kts 304°
2026-04-22 14:28 25.26638 55.34222 1861 ft 168 kts 303°
2026-04-22 14:28 25.27268 55.33016 2107 ft 193 kts 301°
2026-04-22 14:28 25.28001 55.31594 2292 ft 226 kts 301°
2026-04-22 14:29 25.28803 55.30024 2924 ft 239 kts 297°
2026-04-22 14:29 25.29162 55.28212 3724 ft 249 kts 268°
2026-04-22 14:29 25.28707 55.26353 3917 ft 250 kts 238°
2026-04-22 14:29 25.27484 55.24972 4052 ft 250 kts 214°
2026-04-22 14:30 25.26028 55.23926 4052 ft 252 kts 212°
2026-04-22 14:30 25.24486 55.22967 4026 ft 250 kts 196°
2026-04-22 14:30 25.22787 55.22847 4029 ft 244 kts 165°
2026-04-22 14:30 25.21286 55.23693 4010 ft 243 kts 134°
2026-04-22 14:31 25.20250 55.25170 4023 ft 243 kts 122°
2026-04-22 14:31 25.19294 55.26738 4025 ft 243 kts 122°
2026-04-22 14:31 25.18346 55.28302 4037 ft 240 kts 122°
2026-04-22 14:31 25.17403 55.29862 4018 ft 247 kts 122°
2026-04-22 14:32 25.16451 55.31441 4035 ft 239 kts 122°
2026-04-22 14:32 25.15536 55.32959 3719 ft 237 kts 122°
2026-04-22 14:32 25.14609 55.34494 3282 ft 241 kts 122°
2026-04-22 14:32 25.13679 55.36037 2965 ft 238 kts 122°
2026-04-22 14:33 25.12745 55.37592 2594 ft 239 kts 122°
2026-04-22 14:33 25.11827 55.39130 2242 ft 239 kts 122°
2026-04-22 14:33 25.10921 55.40647 2041 ft 231 kts 122°
2026-04-22 14:33 25.10016 55.42166 1977 ft 239 kts 122°
2026-04-22 14:34 25.09100 55.43704 2026 ft 236 kts 122°
2026-04-22 14:34 25.08183 55.45242 2020 ft 237 kts 122°
2026-04-22 14:34 25.07266 55.46783 2030 ft 235 kts 122°
2026-04-22 14:34 25.06361 55.48300 2020 ft 235 kts 122°
2026-04-22 14:35 25.05444 55.49839 2015 ft 236 kts 122°
2026-04-22 14:35 25.04539 55.51365 2014 ft 238 kts 122°
2026-04-22 14:35 25.03625 55.52918 2030 ft 237 kts 120°
2026-04-22 14:35 25.03119 55.54603 2024 ft 229 kts 89°
2026-04-22 14:36 25.03521 55.56233 2014 ft 215 kts 53°
2026-04-22 14:36 25.04670 55.57319 2000 ft 220 kts 25°
2026-04-22 14:36 25.06040 55.58062 2009 ft 220 kts 30°
2026-04-22 14:36 25.07354 55.58962 2031 ft 218 kts 31°
2026-04-22 14:37 25.08690 55.59624 2037 ft 205 kts
2026-04-22 14:37 25.10076 55.59333 2053 ft 203 kts 334°
2026-04-22 14:37 25.11315 55.58586 2053 ft 201 kts 331°
2026-04-22 14:37 25.12548 55.57839 2032 ft 197 kts 330°
2026-04-22 14:38 25.13510 55.56751 2013 ft 198 kts 307°
2026-04-22 14:38 25.14451 55.55606 2007 ft 202 kts 313°
2026-04-22 14:38 25.15332 55.54403 2023 ft 195 kts 307°
2026-04-22 14:38 25.16052 55.53218 2005 ft 175 kts 303°
2026-04-22 14:39 25.16669 55.52096 2024 ft 170 kts 302°
2026-04-22 14:39 25.17284 55.50928 2031 ft 175 kts 302°
2026-04-22 14:39 25.17891 55.49784 2041 ft 171 kts 302°
2026-04-22 14:40 25.19133 55.47517 1825 ft 168 kts 303°
2026-04-22 14:40 25.19750 55.46409 1538 ft 167 kts 303°
2026-04-22 14:40 25.20356 55.45320 1297 ft 165 kts 302°
2026-04-22 14:40 25.20930 55.44283 1116 ft 144 kts 302°
2026-04-22 14:41 25.21412 55.43401 893 ft 130 kts 303°
2026-04-22 14:41 25.21889 55.42541 734 ft 129 kts 302°
2026-04-22 14:41 25.22359 55.41716 535 ft 129 kts 303°
2026-04-22 14:41 25.22823 55.40858 376 ft 126 kts 303°
2026-04-22 14:42 25.23280 55.40036 222 ft 124 kts 302°
2026-04-22 14:42 25.23738 55.39213 79 ft 125 kts 303°
2026-04-22 14:42 25.24138 55.38498 28 ft 82 kts 302°
2026-04-22 14:42 25.24355 55.38108 34 ft 45 kts 302°
2026-04-22 14:43 25.24528 55.37796 37 ft 50 kts 301°
2026-04-22 14:43 25.24719 55.37444 45 ft 53 kts 299°
2026-04-22 14:43 25.24789 55.37130 59 ft 28 kts 272°
2026-04-22 14:43 25.24791 55.37027 63 ft 9 kts 271°
2026-04-22 14:44 25.24792 55.37019 63 ft 0 kts 272°
2026-04-22 14:44 25.24792 55.37016 63 ft 0 kts 272°
2026-04-22 14:44 25.24792 55.37012 63 ft 0 kts 272°
2026-04-22 14:44 25.24792 55.37009 63 ft 0 kts 272°
2026-04-22 14:45 25.24792 55.37003 64 ft 0 kts 273°
2026-04-22 14:45 25.24792 55.37001 64 ft 0 kts 273°
2026-04-22 14:45 25.24793 55.36992 64 ft 3 kts 273°
2026-04-22 14:45 25.24802 55.36949 63 ft 7 kts 289°
2026-04-22 14:46 25.24827 55.36890 63 ft 6 kts 299°
2026-04-22 14:46 25.24850 55.36832 62 ft 10 kts 288°
2026-04-22 14:46 25.24868 55.36747 58 ft 13 kts 282°
2026-04-22 14:46 25.24911 55.36625 51 ft 20 kts 300°
2026-04-22 14:47 25.24986 55.36491 40 ft 23 kts 302°
2026-04-22 14:47 25.25084 55.36314 28 ft 29 kts 301°
2026-04-22 14:47 25.25154 55.36188 24 ft 17 kts 301°
2026-04-22 14:47 25.25222 55.36064 19 ft 12 kts 302°
2026-04-22 14:48 25.25278 55.35965 17 ft 16 kts 301°
2026-04-22 14:48 25.25338 55.35856 17 ft 16 kts 301°
2026-04-22 14:48 25.25392 55.35759 14 ft 13 kts 302°
2026-04-22 14:48 25.25451 55.35653 11 ft 18 kts 301°
2026-04-22 14:49 25.25495 55.35572 10 ft 11 kts 301°
2026-04-22 14:49 25.25536 55.35498 10 ft 12 kts 301°
2026-04-22 14:49 25.25546 55.35480 9 ft 0 kts 301°
2026-04-22 14:49 25.25548 55.35477 9 ft 1 kts 301°
2026-04-22 14:50 25.25558 55.35460 9 ft 1 kts 301°
2026-04-22 14:50 25.25569 55.35439 9 ft 5 kts 301°
2026-04-22 14:50 25.25596 55.35392 9 ft 8 kts 302°
2026-04-22 14:50 25.25627 55.35336 8 ft 8 kts 301°
2026-04-22 14:51 25.25660 55.35275 8 ft 10 kts 301°
2026-04-22 14:51 25.25700 55.35203 10 ft 11 kts 301°
2026-04-22 14:51 25.25744 55.35123 12 ft 12 kts 300°
2026-04-22 14:51 25.25787 55.35042 15 ft 12 kts 301°
2026-04-22 14:52 25.25833 55.34959 18 ft 12 kts 301°
2026-04-22 14:52 25.25877 55.34880 21 ft 12 kts 301°
2026-04-22 14:52 25.25921 55.34801 24 ft 11 kts 302°
2026-04-22 14:52 25.25962 55.34726 27 ft 11 kts 301°
2026-04-22 14:53 25.26002 55.34654 30 ft 10 kts 301°
2026-04-22 14:53 25.26031 55.34597 33 ft 5 kts 304°
2026-04-22 14:53 25.26046 55.34557 34 ft 6 kts 270°
2026-04-22 14:53 25.26015 55.34517 34 ft 8 kts 212°
2026-04-22 14:54 25.25954 55.34475 32 ft 10 kts 212°
2026-04-22 14:54 25.25896 55.34435 29 ft 6 kts 212°
2026-04-22 14:54 25.25888 55.34429 29 ft 0 kts 212°